Location: Newark
(48.5156°N, 1.8989°W)
Time: 08:41:14
(UTC+00:00)

Transit 4A - Pass Details

Date: 29 November 2019
Orbit: 870 x 975 km, 66.8° (Epoch: 05 December)

Event Time Altitude Azimuth Distance (km) Brightness Sun altitude
Exits shadow 03:27:24 23° 101° (E) 1,758 9.7 -40.2°
Drops below altitude 10° 03:29:46 10° 115° (ESE) 2,518 10.6 -39.8°
Sets 03:32:21 0° 122° (ESE) 3,449 11.4 -39.4°
